DELTA 1 DEB, 9702

Orbit data source: Space-Track

DELTA 1 DEB, 9702 is space debris in LEO originally from a launch on Tue, 06 Nov 1973 UTC launched from the Air Force Western Test Range (AFWTR). Debris objects in space refer to the collection of defunct objects orbiting the Earth. Examples of debris include non-operational satellites, rocket bodies, and fragments generated from explosions, collisions, or faulty payload assembly.

Loading next visibility...
Identifier
9702, 1973-086GA
Orbit
LEO
Country
Flag of USUS
Related business
Manufacturer
Unknown
Mission
Spacecraft
Bus & Motor
Unknown
Mass
Unknown
Launch date (UTC)
1973-11-06 (53 years ago)
Launch vehicle
Unknown
Launch site
Air Force Western Test Range (AFWTR)
Object type
Payload
Rocket body
Debris
Shape & HBR
Unknown shape, 1.1 m
Radar Cross Section
Medium (>0.1 m² and <1 m²)

Expand to show TLE details & history
Last TLE update: 1 day ago

TLE from 1 day ago
0 DELTA 1 DEB
1  9702U 73086GA  26262.28160829 -.00000003  00000-0  45059-3 0  9996
2  9702 103.0677 184.6393 0695241  87.9860  60.0812 11.43022147201334
Epoch: 2026-09-19T06:45Z
TLE epoch observation values (Epoch: 2026-09-19T06:45:30.956Z)
Latitude
24.07805°
Longitude
-89.00726°
Altitude
1,692.024 km
Speed
7.139 km/s
True Right ascension
00h 42m 15s
True Declination
23° 57' 54"
Sunlit
Object was in full shadow at epoch
Visualization orbit readout
Latitude
Unknown
Longitude
Unknown
Altitude
Unknown
Speed
Unknown
Apparent Right ascension
Unknown
Apparent Declination
Unknown
Sunlit
N/A
Visualization observer readout
Local Sidereal Time
09:46:40
Azimuth
Unknown
Elevation
Unknown
Doppler factor
Unknown
Orbital elements
Apogee altitude
2,522.858 km
Perigee altitude
1,365.645 km
Semi-major axis
8,322.389 km
Eccentricity
0.06952
Inclination
103.0677°
RAAN
184.6393°
Arg. of periapsis
87.986°
True anomaly
67.27954°
Mean anomaly
60.0812°
Eccentric anomaly
63.65078°
Mean motion
2.85872 °/min
Orbital period
125.93 mins
BSTAR
0.00045059
Loading maneuver chart data...
Computing Atmospheric mass density...
Loading historical data...
Loading historical data...
Loading historical data...
Loading historical data...
Loading historical data...
Loading historical data...
Loading historical data...

Documentation

Showing up to 5 results
|